Flag Weather past 2 weeks in Winterthur, Switzerland

Now
39 °F

Fog.


Feels Like: 39 °F
Forecast: 40 / 58 °F
Wind: 1 mph from North

Location: Zurich-Kloten

Current Time: Nov 23, 2014 at 2:06:21 AM

Latest Report: Nov 23, 2014 at 1:20 AM


Visibility: 0 mi

Pressure: 30.21 "Hg

Humidity: 100%

Dew point: 39 °F

Location of WinterthurLocation

Historic Weather in Winterthur — Graph

°F

Winterthur temperature yesterday

Maximum temperature yesterday: 43 °F (at 12:20 AM)
Minimum temperature yesterday: 36 °F (at 4:50 AM)
Average temperature yesterday: 40 °F

Past Weeks' High & Low Weather Summary

 TemperatureHumidityPressure
High54 °F (Nov 8, 12:20 PM)100% (Nov 8, 2:20 AM)30.27 "Hg (Nov 8, 2:20 AM)
Low32 °F (Nov 9, 5:50 AM)63% (Nov 8, 12:50 PM)29.56 "Hg (Nov 15, 5:20 PM)
Average44 °F93%29.88 "Hg
* Reported Nov 8 12:20 AM — Nov 23 12:20 AM, Winterthur, Weather by CustomWeather, © 2014

Note: Actual official high and low records may vary slightly from our data, if they occured in-between our weather recording intervals... More about our weather records

Advertising

Winterthur weather history for previous 24 hours

 ConditionsComfort  
Time TempWeatherWind HumidityBarometerVisibility
12:20 AM
Nov 23
39 °FFog.2 mph100%30.21 "Hg0 mi
11:50 PM
Nov 22
39 °FFog.2 mph100%30.21 "Hg0 mi
11:20 PM39 °FFog.1 mph100%30.21 "Hg0 mi
10:50 PM39 °FFog.2 mph100%30.21 "Hg0 mi
10:20 PM39 °FFog.2 mph100%30.21 "Hg0 mi
9:50 PM39 °FFog.2 mph100%30.18 "Hg0 mi
9:20 PM39 °FFog.3 mph100%30.18 "Hg0 mi
8:50 PM41 °FFog.1 mph100%30.18 "Hg0 mi
8:20 PM41 °FFog.1 mph100%30.18 "Hg0 mi
7:50 PM41 °FFog.3 mph100%30.18 "Hg0 mi
7:20 PM41 °FFog.3 mph100%30.15 "Hg0 mi
6:50 PM41 °FFog.2 mph100%30.15 "Hg0 mi
6:20 PM41 °FFog.3 mph100%30.15 "Hg0 mi
5:50 PM43 °FFog.5 mph100%30.15 "Hg0 mi
5:20 PM43 °FFog.5 mph100%30.15 "Hg0 mi
4:50 PM43 °FFog.5 mph100%30.15 "Hg0 mi
4:20 PM43 °FDense fog.5 mph100%30.15 "Hg0 mi
3:50 PM43 °FDense fog.2 mph100%30.15 "Hg1 mi
3:20 PM43 °FDense fog.3 mph100%30.15 "Hg1 mi
2:50 PM43 °FDense fog.3 mph100%30.15 "Hg1 mi
2:20 PM43 °FDense fog.3 mph100%30.15 "Hg1 mi
1:50 PM43 °FDense fog.3 mph100%30.15 "Hg1 mi
1:20 PM43 °FDense fog.2 mph100%30.15 "Hg1 mi
12:50 PM43 °FDense fog.1 mph100%30.15 "Hg1 mi
12:20 PM43 °FDense fog.2 mph100%30.18 "Hg0 mi
11:50 AM43 °FDense fog.1 mph100%30.18 "Hg0 mi
11:20 AM41 °FDense fog.2 mph100%30.18 "Hg0 mi
10:50 AM41 °FFog.3 mph100%30.18 "Hg0 mi
10:20 AM41 °FFog.2 mph100%30.18 "Hg0 mi
9:50 AM41 °FFog.2 mph100%30.18 "Hg0 mi
9:20 AM39 °FFog.2 mph100%30.18 "Hg0 mi
8:50 AM39 °FDense fog.1 mph100%30.18 "Hg1 mi
8:20 AM39 °FFog.No wind100%30.18 "Hg0 mi
7:50 AM39 °FFog.3 mph100%30.15 "Hg0 mi
7:20 AM39 °FDense fog.5 mph100%30.15 "Hg0 mi
6:50 AM39 °FDense fog.5 mph100%30.15 "Hg1 mi
6:20 AM37 °FFog.5 mph100%30.15 "Hg0 mi
5:50 AM37 °FFog.No wind100%30.15 "Hg0 mi
5:20 AM37 °FFog.2 mph100%30.15 "Hg0 mi
4:50 AM36 °FFog.No wind100%30.15 "Hg0 mi
4:20 AM37 °FFog.1 mph100%30.15 "Hg0 mi
3:50 AM37 °FChilly.2 mph100%30.15 "Hg1 mi
3:20 AM37 °FChilly.5 mph100%30.15 "Hg1 mi
2:50 AM39 °FLight fog.1 mph93%30.15 "Hg1 mi
2:20 AM37 °FPassing clouds.No wind100%30.15 "Hg1 mi
Weather by CustomWeather, © 2014

See weather overviewHow to use our weather pages